Hourly Data Report for July 02, 2021

BANCROFT AUTO
ONTARIO
Current Station Operator: ECCC - MSC

45°04'17.000" N
77°52'44.000" W
330.70 m
616I001
71294
WRK

Download Data

Hourly Data (July 2021)
Hourly Data Report for July 2, 2021
TIME
LST
Temp Definition
°C
Dew Point Definition
°C
Rel Hum Definition
%
Precip. Amount Definition
mm

Wind Dir Definition
10's deg

Wind Spd Definition
km/h
Visibility Definition
km
Stn Press Definition
kPa
Hmdx Definition


Wind Chill Definition


Weather Definition


00:00 15.0 14.2 95 0.0 32 5   97.35     LegendNANA
01:00 15.2 14.3 94 0.2 34 4   97.33     LegendNANA
02:00 15.0 14.2 95 1.2 30 4   97.32     LegendNANA
03:00 14.8 13.9 95 1.6 33 6   97.29     LegendNANA
04:00 14.7 13.9 95 1.4 31 4   97.29     LegendNANA
05:00 14.6 13.8 95 0.0 34 5   97.35     LegendNANA
06:00 14.9 13.9 94 0.0 32 7   97.36     LegendNANA
07:00 15.2 13.8 91 0.0 33 6   97.38     LegendNANA
08:00 16.2 14.2 88 0.0 34 6   97.40     LegendNANA
09:00 18.0 14.1 78 0.0 4 11   97.39     LegendNANA
10:00 19.1 14.5 75 0.0 6 11   97.38     LegendNANA
11:00 20.3 14.6 70 0.0 5 12   97.37     LegendNANA
12:00 20.0 13.6 67 0.0 5 13   97.33     LegendNANA
13:00 20.7 14.1 66 0.0 3 10   97.28     LegendNANA
14:00 20.9 13.3 62 0.0 36 12   97.28     LegendNANA
15:00 17.6 13.9 79 0.0 13 8   97.32     LegendNANA
16:00 15.6 14.9 96 7.1 21 2   97.38     LegendNANA
17:00 16.4 15.1 92 0.6 32 4   97.35     LegendNANA
18:00 18.0 15.4 85 0.0 8 7   97.32     LegendNANA
19:00 17.5 14.7 84 0.0 2 3   97.33     LegendNANA
20:00 15.4 14.7 95 0.0 27 3   97.38     LegendNANA
21:00 14.0 13.5 97 0.0 33 2   97.39     LegendNANA
22:00 13.4 13.0 98 0.0 32 3   97.37     LegendNANA
23:00 13.7 13.4 98 0.0 3 2   97.34     LegendNANA

Notes on Data Quality.

Legend

  • E = Estimated
  • M = Missing
  • NA = Not Available*
  • [empty] = Indicates an unobserved value
Date modified: